{"data":{"norad_id":56317,"intl_designator":"2023-058A","name":"STARLINK-6038","alt_names":[],"object_type":"PAYLOAD","status":"ACTIVE","operator":null,"country":"US","launch_date":"2023-04-27","launch_site_code":"AFWTR","launch_vehicle":null,"mission":null,"orbit_class":"UNKNOWN","rcs_meters":null,"size_class":null,"mass_kg":null,"dimensions":null,"purposes":["comms"],"wikipedia_slug":null,"has_3d_model":false,"image_url":null,"decayed_at":null,"tle_current":{"epoch":"2026-05-24T23:03:38.380032Z","epoch_age_seconds":71807,"freshness":"FRESH","line1":"1 56317U 23058A   26144.96086088 -.00000917  00000+0 -59475-4 0  9994","line2":"2 56317  97.4530 146.0363 0001590  84.0828 276.0580 15.05674629169324","mean_motion":15.05674629,"eccentricity":0.000159,"inclination_deg":97.453,"raan_deg":146.0363,"arg_perigee_deg":84.0828,"mean_anomaly_deg":276.058,"bstar":-5.9475e-5,"rev_number":16932,"period_min":95.638192492915,"perigee_km":548.33412400848,"apogee_km":550.53709209785,"semimajor_km":6927.5726080532,"source":"CELESTRAK","updated_at":"2026-05-25T13:38:17.998803Z"}}}